TimePST,TemperatureF,Dew PointF,Humidity,Sea Level PressureIn,VisibilityMPH,Wind Direction,Wind SpeedMPH,Gust SpeedMPH,PrecipitationIn,Events,Conditions,WindDirDegrees,DateUTC
12:15 AM,28.4,19.4,69,30.03,10.0,East,5.8,-,N/A,,Clear,80,2013-02-18 08:15:00
12:35 AM,28.4,19.4,69,30.04,10.0,East,6.9,-,N/A,,Clear,80,2013-02-18 08:35:00
12:55 AM,28.4,19.4,69,30.04,10.0,East,6.9,-,N/A,,Clear,90,2013-02-18 08:55:00
1:15 AM,28.4,19.4,69,30.03,10.0,East,5.8,-,N/A,,Clear,100,2013-02-18 09:15:00
1:35 AM,26.6,19.4,74,30.03,10.0,East,4.6,-,N/A,,Clear,100,2013-02-18 09:35:00
1:55 AM,28.4,19.4,69,30.02,10.0,East,6.9,-,N/A,,Clear,90,2013-02-18 09:55:00
2:15 AM,26.6,19.4,74,30.02,10.0,East,6.9,-,N/A,,Clear,100,2013-02-18 10:15:00
2:35 AM,28.4,19.4,69,30.01,10.0,East,6.9,-,N/A,,Clear,80,2013-02-18 10:35:00
2:55 AM,28.4,19.4,69,30.00,10.0,East,8.1,-,N/A,,Clear,90,2013-02-18 10:55:00
3:15 AM,28.4,19.4,69,30.00,10.0,East,8.1,-,N/A,,Clear,80,2013-02-18 11:15:00
3:35 AM,28.4,19.4,69,29.99,10.0,East,6.9,-,N/A,,Mostly Cloudy,100,2013-02-18 11:35:00
4:15 AM,28.4,19.4,69,29.98,10.0,East,6.9,-,N/A,,Scattered Clouds,100,2013-02-18 12:15:00
4:35 AM,28.4,19.4,69,29.97,10.0,East,6.9,-,N/A,,Scattered Clouds,100,2013-02-18 12:35:00
4:55 AM,28.4,19.4,69,29.97,10.0,East,6.9,-,N/A,,Clear,100,2013-02-18 12:55:00
5:15 AM,28.4,19.4,69,29.96,10.0,East,9.2,-,N/A,,Mostly Cloudy,100,2013-02-18 13:15:00
5:35 AM,28.4,19.4,69,29.96,10.0,ESE,6.9,10.4,N/A,,Scattered Clouds,120,2013-02-18 13:35:00
5:55 AM,28.4,19.4,69,29.96,10.0,ENE,4.6,-,N/A,,Clear,70,2013-02-18 13:55:00
6:15 AM,28.4,19.4,69,29.96,10.0,ENE,8.1,-,N/A,,Clear,70,2013-02-18 14:15:00
6:35 AM,28.4,19.4,69,29.95,10.0,ENE,6.9,-,N/A,,Clear,70,2013-02-18 14:35:00
6:55 AM,28.4,19.4,69,29.95,10.0,ENE,5.8,-,N/A,,Scattered Clouds,70,2013-02-18 14:55:00
7:15 AM,28.4,19.4,69,29.95,10.0,ENE,6.9,-,N/A,,Scattered Clouds,70,2013-02-18 15:15:00
7:35 AM,28.4,19.4,69,29.94,10.0,East,8.1,-,N/A,,Scattered Clouds,80,2013-02-18 15:35:00
7:55 AM,30.2,19.4,64,29.93,10.0,East,6.9,-,N/A,,Mostly Cloudy,90,2013-02-18 15:55:00
8:15 AM,30.2,19.4,64,29.92,10.0,ENE,9.2,-,N/A,,Scattered Clouds,70,2013-02-18 16:15:00
8:35 AM,32.0,19.4,60,29.92,10.0,ENE,5.8,-,N/A,,Clear,70,2013-02-18 16:35:00
8:55 AM,32.0,19.4,60,29.92,10.0,East,8.1,-,N/A,,Mostly Cloudy,90,2013-02-18 16:55:00
9:15 AM,32.0,19.4,60,29.91,10.0,East,5.8,-,N/A,,Mostly Cloudy,100,2013-02-18 17:15:00
9:35 AM,33.8,19.4,56,29.90,10.0,East,5.8,-,N/A,,Mostly Cloudy,100,2013-02-18 17:35:00
9:55 AM,35.6,19.4,52,29.90,10.0,ENE,5.8,-,N/A,,Mostly Cloudy,70,2013-02-18 17:55:00
10:15 AM,37.4,19.4,48,29.88,10.0,East,5.8,-,N/A,,Mostly Cloudy,80,2013-02-18 18:15:00
10:35 AM,37.4,19.4,48,29.88,10.0,ESE,3.5,-,N/A,,Scattered Clouds,110,2013-02-18 18:35:00
10:55 AM,39.2,19.4,45,29.88,10.0,East,3.5,-,N/A,,Clear,100,2013-02-18 18:55:00
11:15 AM,41.0,19.4,42,29.87,10.0,Calm,Calm,-,N/A,,Clear,0,2013-02-18 19:15:00
11:35 AM,42.8,19.4,39,29.87,10.0,WNW,6.9,-,N/A,,Scattered Clouds,300,2013-02-18 19:35:00
11:55 AM,42.8,17.6,36,29.85,10.0,NE,6.9,-,N/A,,Clear,50,2013-02-18 19:55:00
12:15 PM,44.6,17.6,34,29.84,10.0,SE,4.6,-,N/A,,Clear,140,2013-02-18 20:15:00
12:35 PM,42.8,17.6,36,29.83,10.0,East,4.6,-,N/A,,Scattered Clouds,90,2013-02-18 20:35:00
12:55 PM,44.6,15.8,31,29.82,10.0,Calm,Calm,-,N/A,,Scattered Clouds,0,2013-02-18 20:55:00
1:15 PM,44.6,15.8,31,29.81,10.0,SE,5.8,-,N/A,,Scattered Clouds,140,2013-02-18 21:15:00
1:35 PM,44.6,14.0,29,29.82,10.0,South,8.1,16.1,N/A,,Scattered Clouds,180,2013-02-18 21:35:00
1:55 PM,44.6,14.0,29,29.81,10.0,South,11.5,-,N/A,,Scattered Clouds,170,2013-02-18 21:55:00
2:15 PM,44.6,14.0,29,29.81,10.0,South,12.7,16.1,N/A,,Scattered Clouds,170,2013-02-18 22:15:00
2:35 PM,44.6,14.0,29,29.81,10.0,South,11.5,17.3,N/A,,Scattered Clouds,180,2013-02-18 22:35:00
2:55 PM,44.6,15.8,31,29.80,10.0,SSE,12.7,-,N/A,,Scattered Clouds,160,2013-02-18 22:55:00
3:15 PM,44.6,15.8,31,29.80,10.0,South,10.4,-,N/A,,Mostly Cloudy,180,2013-02-18 23:15:00
3:35 PM,42.8,17.6,36,29.79,10.0,SSE,17.3,-,N/A,,Scattered Clouds,160,2013-02-18 23:35:00
3:55 PM,42.8,17.6,36,29.79,10.0,South,11.5,18.4,N/A,,Mostly Cloudy,180,2013-02-18 23:55:00
4:15 PM,42.8,17.6,36,29.79,10.0,South,17.3,-,N/A,,Overcast,190,2013-02-19 00:15:00
4:35 PM,42.8,17.6,36,29.78,10.0,South,11.5,-,N/A,,Overcast,170,2013-02-19 00:35:00
4:55 PM,42.8,19.4,39,29.76,10.0,SSE,5.8,-,N/A,,Overcast,160,2013-02-19 00:55:00
5:15 PM,41.0,21.2,45,29.76,10.0,ESE,6.9,-,N/A,,Overcast,120,2013-02-19 01:15:00
5:35 PM,39.2,23.0,52,29.76,10.0,East,6.9,-,N/A,,Overcast,100,2013-02-19 01:35:00
6:15 PM,37.4,23.0,56,29.76,10.0,ENE,6.9,-,N/A,,Overcast,60,2013-02-19 02:15:00
6:35 PM,37.4,21.2,52,29.76,10.0,ENE,3.5,-,N/A,,Overcast,60,2013-02-19 02:35:00
6:55 PM,37.4,23.0,56,29.76,10.0,SE,4.6,-,N/A,,Overcast,140,2013-02-19 02:55:00
7:15 PM,37.4,23.0,56,29.75,10.0,ESE,5.8,-,N/A,,Overcast,120,2013-02-19 03:15:00
7:35 PM,37.4,23.0,56,29.75,10.0,East,5.8,-,N/A,,Overcast,100,2013-02-19 03:35:00
7:55 PM,37.4,23.0,56,29.74,10.0,East,3.5,-,N/A,,Overcast,100,2013-02-19 03:55:00
8:15 PM,37.4,23.0,56,29.74,10.0,Calm,Calm,-,N/A,,Overcast,0,2013-02-19 04:15:00
8:35 PM,37.4,28.4,70,29.74,10.0,South,9.2,-,N/A,,Overcast,190,2013-02-19 04:35:00
8:55 PM,35.6,28.4,75,29.74,10.0,SW,6.9,-,N/A,,Overcast,220,2013-02-19 04:55:00
9:15 PM,35.6,28.4,75,29.73,10.0,SW,3.5,-,N/A,,Overcast,230,2013-02-19 05:15:00
9:35 PM,35.6,30.2,81,29.73,10.0,South,6.9,-,N/A,,Overcast,190,2013-02-19 05:35:00
9:55 PM,33.8,32.0,93,29.73,4.0,WSW,5.8,-,N/A,Snow,Light Snow,250,2013-02-19 05:55:00
10:15 PM,32.0,32.0,100,29.72,1.0,West,4.6,-,N/A,Snow,Snow,270,2013-02-19 06:15:00
10:35 PM,32.0,32.0,100,29.72,1.2,Calm,Calm,-,0.02,Snow,Light Snow,0,2013-02-19 06:35:00
10:55 PM,32.0,32.0,100,29.71,1.8,Calm,Calm,-,0.04,Snow,Light Snow,0,2013-02-19 06:55:00
11:15 PM,32.0,32.0,100,29.70,1.5,Calm,Calm,-,N/A,Snow,Light Snow,0,2013-02-19 07:15:00
11:35 PM,32.0,32.0,100,29.69,2.5,Calm,Calm,-,0.01,Snow,Light Snow,0,2013-02-19 07:35:00
11:55 PM,32.0,32.0,100,29.68,0.2,Calm,Calm,-,0.01,Snow,Light Snow,0,2013-02-19 07:55:00